TimePDT,TemperatureF,Dew PointF,Humidity,Sea Level PressureIn,VisibilityMPH,Wind Direction,Wind SpeedMPH,Gust SpeedMPH,PrecipitationIn,Events,Conditions,WindDirDegrees,DateUTC
12:53 AM,50.0,48.9,96,30.07,9.0,WNW,5.8,-,N/A,,Clear,300,2013-03-16 07:53:00
1:53 AM,50.0,46.9,89,30.06,10.0,NW,5.8,-,N/A,,Clear,320,2013-03-16 08:53:00
2:53 AM,48.0,46.0,93,30.06,10.0,WNW,4.6,-,N/A,,Clear,300,2013-03-16 09:53:00
3:31 AM,46.4,46.4,100,30.07,2.0,West,4.6,-,N/A,,Scattered Clouds,280,2013-03-16 10:31:00
3:34 AM,46.4,46.4,100,30.07,1.0,West,3.5,-,N/A,,Mist,280,2013-03-16 10:34:00
3:40 AM,46.4,46.4,100,30.07,0.2,Calm,Calm,-,N/A,Fog,Fog,0,2013-03-16 10:40:00
3:53 AM,46.0,46.0,100,30.06,0.8,Calm,Calm,-,N/A,,Mist,0,2013-03-16 10:53:00
3:57 AM,46.4,46.4,100,30.06,2.5,Calm,Calm,-,N/A,,Mostly Cloudy,0,2013-03-16 10:57:00
4:03 AM,46.4,46.4,100,30.06,8.0,Calm,Calm,-,N/A,,Scattered Clouds,0,2013-03-16 11:03:00
4:30 AM,46.4,46.4,100,30.06,8.0,Calm,Calm,-,N/A,,Mostly Cloudy,0,2013-03-16 11:30:00
4:53 AM,48.0,46.9,96,30.05,6.0,Calm,Calm,-,N/A,,Overcast,0,2013-03-16 11:53:00
5:07 AM,46.4,46.4,100,30.06,1.8,NW,4.6,-,N/A,,Overcast,310,2013-03-16 12:07:00
5:17 AM,46.4,46.4,100,30.07,0.5,NW,4.6,-,N/A,Fog,Fog,320,2013-03-16 12:17:00
5:28 AM,46.4,46.4,100,30.06,0.2,Calm,Calm,-,N/A,Fog,Fog,0,2013-03-16 12:28:00
5:53 AM,46.9,46.9,100,30.06,0.2,Calm,Calm,-,N/A,Fog,Fog,0,2013-03-16 12:53:00
6:24 AM,46.4,46.4,100,30.05,0.2,ENE,3.5,-,N/A,Fog,Fog,60,2013-03-16 13:24:00
6:53 AM,46.9,46.0,97,30.06,0.2,Calm,Calm,-,N/A,Fog,Fog,0,2013-03-16 13:53:00
7:53 AM,46.0,46.0,100,30.07,0.2,Calm,Calm,-,N/A,Fog,Fog,0,2013-03-16 14:53:00
8:53 AM,46.9,46.9,100,30.10,0.2,Calm,Calm,-,N/A,Fog,Fog,0,2013-03-16 15:53:00
9:00 AM,46.4,46.4,100,30.10,0.2,Calm,Calm,-,N/A,Fog,Fog,0,2013-03-16 16:00:00
9:53 AM,48.0,46.9,96,30.11,0.5,Calm,Calm,-,N/A,Fog,Fog,0,2013-03-16 16:53:00
10:11 AM,48.2,48.2,100,30.10,2.0,Calm,Calm,-,N/A,,Mostly Cloudy,0,2013-03-16 17:11:00
10:24 AM,-9999,-9999,N/A,30.10,4.0,Calm,Calm,-,N/A,,Haze,0,2013-03-16 17:24:00
10:31 AM,50.0,48.2,94,30.10,8.0,Calm,Calm,-,N/A,,Scattered Clouds,0,2013-03-16 17:31:00
10:53 AM,54.0,48.9,83,30.10,10.0,Calm,Calm,-,N/A,,Clear,0,2013-03-16 17:53:00
11:53 AM,62.1,52.0,70,30.09,10.0,West,3.5,-,N/A,,Clear,270,2013-03-16 18:53:00
12:53 PM,66.9,51.1,57,30.08,10.0,Calm,Calm,-,N/A,,Clear,0,2013-03-16 19:53:00
1:53 PM,70.0,48.0,46,30.04,10.0,Calm,Calm,-,N/A,,Clear,0,2013-03-16 20:53:00
2:53 PM,73.0,46.9,39,30.02,10.0,West,12.7,-,N/A,,Clear,270,2013-03-16 21:53:00
3:53 PM,70.0,44.1,39,30.02,10.0,West,16.1,-,N/A,,Clear,270,2013-03-16 22:53:00
4:53 PM,69.1,41.0,36,30.03,10.0,WSW,9.2,-,N/A,,Clear,250,2013-03-16 23:53:00
5:53 PM,68.0,43.0,40,30.02,10.0,WSW,10.4,-,N/A,,Clear,250,2013-03-17 00:53:00
6:53 PM,62.1,44.1,52,30.02,10.0,West,10.4,-,N/A,,Clear,270,2013-03-17 01:53:00
7:53 PM,59.0,46.0,62,30.04,10.0,WNW,4.6,-,N/A,,Clear,300,2013-03-17 02:53:00
8:53 PM,54.0,46.0,75,-9999,10.0,West,8.1,-,N/A,,Clear,280,2013-03-17 03:53:00
9:53 PM,53.1,46.0,77,-9999,10.0,Calm,Calm,-,N/A,,Clear,0,2013-03-17 04:53:00
10:53 PM,51.1,44.1,77,-9999,10.0,WNW,3.5,-,N/A,,Clear,290,2013-03-17 05:53:00
11:53 PM,52.0,44.1,74,-9999,10.0,Calm,Calm,-,N/A,,Clear,0,2013-03-17 06:53:00